Regional Weather Roundup
Issued by NWS

Home | Current Version | Previous Version | Text Only | Print | Product List | Glossary Off
Versions: 1 2 3 4 5 6 7 8 9 10 11 12 13 14 15 16 17 18 19 20 21 22 23 24 25 26 27 28 29 30 31 32 33 34 35 36 37 38 39 40 41 42 43 44 45 46 47 48 49 50

173
ASUS43 KLOT 250703
RWRIL

ILLINOIS REGIONAL WEATHER ROUNDUP
NATIONAL WEATHER SERVICE CHICAGO/ROMEOVILLE IL
100 AM CST SAT FEB 25 2017

NOTE: "FAIR" INDICATES FEW OR NO CLOUDS BELOW 12,000 FEET WITH NO
SIGNIFICANT WEATHER AND/OR OBSTRUCTIONS TO VISIBILITY.

* THESE STATIONS ARE NOT UNDER NWS QUALITY CONTROL. THEY ALSO MAY NOT
  REPORT WEATHER SUCH AS PRECIPITATION OR FOG.

ILZ001-002-007-009-015-016-024-250800-
NORTHWEST ILLINOIS

CITY           SKY/WX    TMP DP  RH WIND       PRES   REMARKS
MOLINE         MIX PCPN  27  21  78 NW20      29.76R WCI  13
STERLING*      FLURRIES  28  26  92 NW15      29.69S WCI  16
$$

ILZ003-004-008-010-011-017-018-250800-
NORTH CENTRAL ILLINOIS

CITY           SKY/WX    TMP DP  RH WIND       PRES   REMARKS
ROCKFORD       LGT SNOW  28  25  88 NW10      29.66S FOG     WCI  19
FREEPORT*      LGT SNOW  25  23  92 NW10      29.69R WCI  15
ROCHELLE*      CLOUDY    29  27  92 NW16      29.66S WCI  17
DE KALB*       CLOUDY    28  26  91 W13       29.63F WCI  18
PERU*          FLURRIES  30  27  89 NW14      29.68R WCI  19
$$

ILZ005-006-012>014-019>023-250800-
NORTHEAST ILLINOIS

CITY           SKY/WX    TMP DP  RH WIND       PRES   REMARKS
CHICAGO-OHARE  CLOUDY    32  26  78 W15       29.60S WCI  22
CHICAGO-MIDWAY FLURRIES  33  27  78 W13       29.60F WCI  24
AURORA         MOCLDY    31  27  85 W10       29.63S WCI  22
LANSING*       CLOUDY    33  32  94 W8        29.61S WCI  26
JOLIET*        CLOUDY    33  30  88 W7        29.64S WCI  27
WAUKEGAN       CLOUDY    29  25  85 NW7       29.59F WCI  22
DUPAGE AIRPORT CLOUDY    30  25  81 W12       29.61F WCI  20
KANKAKEE*      CLOUDY    34  30  86 W13       29.64R WCI  25
WHEELING       CLOUDY    30  26  85 W9        29.61S WCI  22
MORRIS*        LGT SNOW  32  30  92 NW10G16   29.64S WCI  23
ROMEOVILLE*    CLOUDY    31  30  95 NW15      29.62F WCI  21
NORTHERLY ISL    N/A     33  29  85 W8          N/A  WCI  26
$$

LMZ740>746-250800-
SOUTHERN LAKE MICHIGAN

STATION/POSITION SKY/WX   TEMP    WIND        PRES    VSBY  WAVE
                          AIR SEA DIR/SP/G                  HT/PER
                          (F)     (DEG/KT/KT) (MB)    (MI)  (FT/S)
HARRISON CRIB              34     280/ 13/ 13   N/A
BURNHAM HARBOR             33     300/  7/ 13   N/A
CALUMET HARBOR             33     240/  6/ 12 1002.2R
BURNS HARBOR               36     270/ 14/ 18 1002.7S
MICHIGAN CITY              34     260/ 14/ 15   N/A
$$

ILZ025>027-034>036-040-047-049-050-058-095>099-250800-
WEST-CENTRAL ILLINOIS

CITY           SKY/WX    TMP DP  RH WIND       PRES   REMARKS
QUINCY         CLOUDY    27  21  78 W21G30    29.86R WCI  13
GALESBURG*     LGT SNOW  26  23  89 W18G30    29.76R WCI  13
MACOMB*        CLOUDY    27  24  88 NW22G33   29.82R WCI  13
JACKSONVILLE*  CLOUDY    29  24  81 W24G35    29.82R WCI  15
PITTSFIELD*    CLOUDY    29  23  78 W18G26    29.86R WCI  17
$$

ILZ028>032-037-038-041>044-048-051>054-059>061-250800-
CENTRAL ILLINOIS

CITY           SKY/WX    TMP DP  RH WIND       PRES   REMARKS
PONTIAC        CLOUDY    33  32  94 NW16      29.67S WCI  23
BLOOMINGTON    LGT RAIN  34  30  85 W24G31    29.67S WCI  21
DECATUR        CLOUDY    33  28  81 W23G29    29.73R WCI  21
PEORIA         FLURRIES  31  28  89 NW9G21    29.72R WCI  23
LACON*         LGT RAIN  31  28  90 NW14G21   29.70R WCI  21
LINCOLN*       CLOUDY    33  29  88 W13G25    29.74R WCI  23
SPRINGFIELD    CLOUDY    31  27  85 W23G38    29.78R WCI  18
TAYLORVILLE    CLOUDY    31  27  85 W23G39    29.78R FOG     WCI  18
$$

ILZ033-039-045-046-055>057-062-063-250800-
EAST-CENTRAL ILLINOIS

CITY           SKY/WX    TMP DP  RH WIND       PRES   REMARKS
CHAMPAIGN      LGT SNOW  35  31  85 W23G30    29.69S FOG     WCI  23
RANTOUL*       CLOUDY    38  34  85 W15G23    29.66F WCI  29
MATTOON        CLOUDY    35  26  69 W15G26    29.73R WCI  25
PARIS*         CLOUDY    37  30  74 W21G43    29.72R WCI  26
$$

ILZ079-100>102-250800-
SOUTHWEST ILLINOIS

CITY           SKY/WX    TMP DP  RH WIND       PRES   REMARKS
ALTON          CLOUDY    32  21  64 W24G33    29.86R WCI  18
BELLEVILLE     CLOUDY    35  20  56 W14G29    29.85R WCI  25
CAHOKIA*       CLOUDY    35  19  52 NW23G30   29.88R WCI  23
SPARTA*        CLOUDY    35  20  55 W20G28    29.88R WCI  24
$$

ILZ064>066-069>071-074>076-080>082-084>086-088>090-092>094-250800-
SOUTH-CENTRAL ILLINOIS

CITY           SKY/WX    TMP DP  RH WIND       PRES   REMARKS
CARBONDALE     CLOUDY    38  27  64 NW17G28   29.85R WCI  28
CAIRO*         CLEAR     42  29  58 W20G26    29.86R
EFFINGHAM*     CLOUDY    35  27  72 SW20G30   29.79S WCI  24
MARION         CLOUDY    41  28  60 W12G24    29.84R
MT. VERNON     CLOUDY    38  26  62 W13G28    29.82R WCI  30
CENTRALIA*     CLOUDY    35  25  67 NW25G37   29.82R WCI  22
SALEM*         CLOUDY    36  24  62 W29G38    29.81R WCI  23
METROPOLIS*    CLEAR     44  27  51 NW14G26   29.83S
$$

ILZ067-068-072-073-078-083-087-091-250800-
SOUTHEAST ILLINOIS

CITY           SKY/WX    TMP DP  RH WIND       PRES   REMARKS
LAWRENCEVILLE  MOCLDY    41  32  70 NW26G32   29.75R
FLORA*         CLOUDY    40  29  65 W25       29.79R
FAIRFIELD*     MOCLDY    39  30  68 W6        29.79R WCI  35
HARRISBURG*    MOCLDY    42  32  66 W17       29.81R
ROBINSON*      MOCLDY    39  31  74 W20G32    29.75R WCI  29
CARMI*         CLEAR     41  32  70 W23G33    29.77R
$$

ABBREVIATIONS USED IN REMARKS
   TC - TEMPERATURE IN CELSIUS
  WCI - WIND CHILL INDEX
   HX - HEAT INDEX
  VSB - VISIBILITY
$$





USA.gov is the U.S. government's official web portal to all federal, state and local government web resources and services.